contact:dominique.lefevre@mio.osupytheas.fr, maurice.libes@osupytheas.fr, didier.mallarino@osupytheas.fr
Project:EMSO http://www.emso-fr.org/EMSO-France
Depth: 2436.0 m
Title:EMSO Ligure Ouest : Data MII capteur MICROCAT
DateTime_Computer,Latitude,Longitude,Temperature,Conductivity,Pressure,DateTime_Instrument
DateTime_Computer,Latitude,Longitude,degC,S m-1,dbar,DateTime_Instrument
2020-11-21T00:00:40Z,42.805,6.029,13.2985,4.59981,2470.147,2020-11-21T02:01:37Z
2020-11-21T00:03:43Z,42.805,6.029,13.2982,4.59987,2470.194,2020-11-21T02:04:40Z
2020-11-21T00:06:46Z,42.805,6.029,13.2976,4.59982,2470.171,2020-11-21T02:07:43Z
2020-11-21T00:09:49Z,42.805,6.029,13.2983,4.59983,2470.171,2020-11-21T02:10:46Z
2020-11-21T00:12:53Z,42.805,6.029,13.2980,4.59981,2470.156,2020-11-21T02:13:50Z
2020-11-21T00:15:56Z,42.805,6.029,13.2969,4.59985,2470.156,2020-11-21T02:16:53Z
2020-11-21T00:18:59Z,42.805,6.029,13.2980,4.59983,2470.171,2020-11-21T02:19:56Z
2020-11-21T00:22:02Z,42.805,6.029,13.2974,4.59981,2470.171,2020-11-21T02:22:59Z
2020-11-21T00:25:05Z,42.805,6.029,13.2974,4.59980,2470.156,2020-11-21T02:26:02Z
2020-11-21T00:28:08Z,42.805,6.029,13.2974,4.59984,2470.147,2020-11-21T02:29:05Z
2020-11-21T00:31:11Z,42.805,6.029,13.2974,4.59989,2470.18,2020-11-21T02:32:08Z
2020-11-21T00:34:14Z,42.805,6.029,13.2978,4.59981,2470.156,2020-11-21T02:35:11Z
2020-11-21T00:37:18Z,42.805,6.029,13.2975,4.59981,2470.156,2020-11-21T02:38:14Z
2020-11-21T00:40:21Z,42.805,6.029,13.2973,4.59981,2470.147,2020-11-21T02:41:18Z
2020-11-21T00:43:24Z,42.805,6.029,13.2973,4.59984,2470.147,2020-11-21T02:44:21Z
2020-11-21T00:46:27Z,42.805,6.029,13.2973,4.59989,2470.156,2020-11-21T02:47:24Z
2020-11-21T00:49:30Z,42.805,6.029,13.2972,4.59981,2470.156,2020-11-21T02:50:27Z
2020-11-21T00:52:33Z,42.805,6.029,13.2974,4.59979,2470.171,2020-11-21T02:53:30Z
2020-11-21T00:55:36Z,42.805,6.029,13.2971,4.59979,2470.156,2020-11-21T02:56:33Z
2020-11-21T00:58:39Z,42.805,6.029,13.2972,4.59988,2470.133,2020-11-21T02:59:36Z
2020-11-21T01:01:43Z,42.805,6.029,13.2971,4.59983,2470.171,2020-11-21T03:02:39Z
2020-11-21T01:04:46Z,42.805,6.029,13.2976,4.59980,2470.133,2020-11-21T03:05:43Z
2020-11-21T01:07:49Z,42.805,6.029,13.2972,4.59985,2470.156,2020-11-21T03:08:46Z
2020-11-21T01:10:52Z,42.805,6.029,13.2971,4.59982,2470.171,2020-11-21T03:11:49Z
2020-11-21T01:13:55Z,42.805,6.029,13.2974,4.59979,2470.156,2020-11-21T03:14:52Z
2020-11-21T01:16:58Z,42.805,6.029,13.2974,4.59978,2470.147,2020-11-21T03:17:55Z
2020-11-21T01:20:01Z,42.805,6.029,13.2975,4.59979,2470.147,2020-11-21T03:20:58Z
2020-11-21T01:23:04Z,42.805,6.029,13.2974,4.59981,2470.133,2020-11-21T03:24:01Z
2020-11-21T01:26:07Z,42.805,6.029,13.2973,4.59979,2470.133,2020-11-21T03:27:04Z
2020-11-21T01:29:11Z,42.805,6.029,13.2974,4.59979,2470.18,2020-11-21T03:30:08Z
2020-11-21T01:32:14Z,42.805,6.029,13.2974,4.59978,2470.194,2020-11-21T03:33:11Z
2020-11-21T01:35:17Z,42.805,6.029,13.2971,4.59978,2470.189,2020-11-21T03:36:14Z
2020-11-21T01:38:20Z,42.805,6.029,13.2977,4.59977,2470.156,2020-11-21T03:39:17Z
2020-11-21T01:41:23Z,42.805,6.029,13.2971,4.59978,2470.156,2020-11-21T03:42:20Z
2020-11-21T01:44:26Z,42.805,6.029,13.2971,4.59981,2470.171,2020-11-21T03:45:23Z
2020-11-21T01:47:29Z,42.805,6.029,13.2973,4.59976,2470.156,2020-11-21T03:48:26Z
2020-11-21T01:50:32Z,42.805,6.029,13.2973,4.59981,2470.133,2020-11-21T03:51:29Z
2020-11-21T01:53:36Z,42.805,6.029,13.2971,4.59978,2470.133,2020-11-21T03:54:33Z
2020-11-21T01:56:39Z,42.805,6.029,13.2970,4.59978,2470.156,2020-11-21T03:57:36Z
2020-11-21T01:59:42Z,42.805,6.029,13.2971,4.59978,2470.156,2020-11-21T04:00:39Z
2020-11-21T02:02:45Z,42.805,6.029,13.2973,4.59978,2470.156,2020-11-21T04:03:42Z
2020-11-21T02:05:48Z,42.805,6.029,13.2968,4.59979,2470.156,2020-11-21T04:06:45Z
2020-11-21T02:08:51Z,42.805,6.029,13.2972,4.59986,2470.147,2020-11-21T04:09:48Z
2020-11-21T02:11:54Z,42.805,6.029,13.2974,4.59984,2470.133,2020-11-21T04:12:51Z
2020-11-21T02:14:57Z,42.805,6.029,13.2974,4.59979,2470.156,2020-11-21T04:15:54Z
2020-11-21T02:18:01Z,42.805,6.029,13.2970,4.59983,2470.133,2020-11-21T04:18:58Z
2020-11-21T02:21:04Z,42.805,6.029,13.2970,4.59978,2470.171,2020-11-21T04:22:01Z
2020-11-21T02:24:07Z,42.805,6.029,13.2972,4.59982,2470.133,2020-11-21T04:25:04Z
2020-11-21T02:27:10Z,42.805,6.029,13.2970,4.59980,2470.147,2020-11-21T04:28:07Z
2020-11-21T02:30:14Z,42.805,6.029,13.2975,4.59986,2470.133,2020-11-21T04:31:11Z
2020-11-21T02:33:17Z,42.805,6.029,13.2974,4.59979,2470.133,2020-11-21T04:34:14Z
2020-11-21T02:36:20Z,42.805,6.029,13.2975,4.59985,2470.18,2020-11-21T04:37:17Z
2020-11-21T02:39:23Z,42.805,6.029,13.2976,4.59981,2470.156,2020-11-21T04:40:20Z
2020-11-21T02:42:26Z,42.805,6.029,13.2973,4.59986,2470.133,2020-11-21T04:43:23Z
2020-11-21T02:45:29Z,42.805,6.029,13.2974,4.59984,2470.133,2020-11-21T04:46:26Z
2020-11-21T02:48:33Z,42.805,6.029,13.2974,4.59987,2470.147,2020-11-21T04:49:29Z
2020-11-21T02:51:36Z,42.805,6.029,13.2972,4.59985,2470.11,2020-11-21T04:52:33Z
2020-11-21T02:54:39Z,42.805,6.029,13.2975,4.59981,2470.171,2020-11-21T04:55:36Z
2020-11-21T02:57:42Z,42.805,6.029,13.2971,4.59977,2470.147,2020-11-21T04:58:39Z
2020-11-21T03:00:45Z,42.805,6.029,13.2971,4.59982,2470.171,2020-11-21T05:01:42Z
2020-11-21T03:03:48Z,42.805,6.029,13.2971,4.59988,2470.156,2020-11-21T05:04:45Z
2020-11-21T03:06:51Z,42.805,6.029,13.2969,4.59985,2470.133,2020-11-21T05:07:48Z
2020-11-21T03:09:54Z,42.805,6.029,13.2974,4.59986,2470.156,2020-11-21T05:10:51Z
2020-11-21T03:12:57Z,42.805,6.029,13.2979,4.60000,2470.18,2020-11-21T05:13:54Z
2020-11-21T03:16:01Z,42.805,6.029,13.2973,4.59987,2470.147,2020-11-21T05:16:58Z
2020-11-21T03:19:04Z,42.805,6.029,13.2976,4.59987,2470.147,2020-11-21T05:20:01Z
2020-11-21T03:22:07Z,42.805,6.029,13.2977,4.59994,2470.11,2020-11-21T05:23:04Z
2020-11-21T03:25:10Z,42.805,6.029,13.2993,4.60021,2470.133,2020-11-21T05:26:07Z
2020-11-21T03:28:13Z,42.805,6.029,13.2984,4.60024,2470.147,2020-11-21T05:29:10Z
2020-11-21T03:31:16Z,42.805,6.029,13.2973,4.59991,2470.147,2020-11-21T05:32:13Z
2020-11-21T03:34:19Z,42.805,6.029,13.2973,4.59999,2470.11,2020-11-21T05:35:16Z
2020-11-21T03:37:22Z,42.805,6.029,13.2975,4.59991,2470.133,2020-11-21T05:38:19Z
2020-11-21T03:40:26Z,42.805,6.029,13.2971,4.59995,2470.11,2020-11-21T05:41:23Z
2020-11-21T03:43:29Z,42.805,6.029,13.2975,4.59999,2470.147,2020-11-21T05:44:26Z
2020-11-21T03:46:32Z,42.805,6.029,13.2975,4.59980,2470.133,2020-11-21T05:47:29Z
2020-11-21T03:49:35Z,42.805,6.029,13.2972,4.59993,2470.11,2020-11-21T05:50:32Z
2020-11-21T03:52:38Z,42.805,6.029,13.2976,4.60021,2470.124,2020-11-21T05:53:35Z
2020-11-21T03:55:41Z,42.805,6.029,13.2974,4.59993,2470.147,2020-11-21T05:56:38Z
2020-11-21T03:58:44Z,42.805,6.029,13.2976,4.60001,2470.11,2020-11-21T05:59:41Z
2020-11-21T04:01:47Z,42.805,6.029,13.2973,4.59995,2470.11,2020-11-21T06:02:44Z
2020-11-21T04:04:51Z,42.805,6.029,13.2971,4.59994,2470.156,2020-11-21T06:05:48Z
2020-11-21T04:07:54Z,42.805,6.029,13.2971,4.59990,2470.11,2020-11-21T06:08:51Z
2020-11-21T04:10:57Z,42.805,6.029,13.2971,4.59992,2470.096,2020-11-21T06:11:54Z
2020-11-21T04:14:00Z,42.805,6.029,13.2971,4.59990,2470.156,2020-11-21T06:14:57Z
2020-11-21T04:17:03Z,42.805,6.029,13.2973,4.59988,2470.147,2020-11-21T06:18:00Z
2020-11-21T04:20:06Z,42.805,6.029,13.2973,4.59996,2470.156,2020-11-21T06:21:03Z
2020-11-21T04:23:09Z,42.805,6.029,13.2979,4.59986,2470.147,2020-11-21T06:24:06Z
2020-11-21T04:26:12Z,42.805,6.029,13.2975,4.59990,2470.156,2020-11-21T06:27:09Z
2020-11-21T04:29:16Z,42.805,6.029,13.2976,4.59988,2470.147,2020-11-21T06:30:13Z
2020-11-21T04:32:19Z,42.805,6.029,13.2979,4.59981,2470.11,2020-11-21T06:33:16Z
2020-11-21T04:35:22Z,42.805,6.029,13.2988,4.59988,2470.133,2020-11-21T06:36:19Z
2020-11-21T04:38:25Z,42.805,6.029,13.2972,4.60014,2470.133,2020-11-21T06:39:22Z
2020-11-21T04:41:28Z,42.805,6.029,13.2974,4.59991,2470.133,2020-11-21T06:42:25Z
2020-11-21T04:44:31Z,42.805,6.029,13.2976,4.59997,2470.11,2020-11-21T06:45:28Z
2020-11-21T04:47:34Z,42.805,6.029,13.2971,4.60003,2470.133,2020-11-21T06:48:31Z
2020-11-21T04:50:37Z,42.805,6.029,13.2974,4.59988,2470.133,2020-11-21T06:51:34Z
2020-11-21T04:53:40Z,42.805,6.029,13.2974,4.59984,2470.133,2020-11-21T06:54:37Z
2020-11-21T04:56:44Z,42.805,6.029,13.2973,4.59986,2470.133,2020-11-21T06:57:41Z
2020-11-21T04:59:47Z,42.805,6.029,13.2970,4.59985,2470.147,2020-11-21T07:00:44Z
2020-11-21T05:02:50Z,42.805,6.029,13.2974,4.59982,2470.133,2020-11-21T07:03:47Z
2020-11-21T05:05:53Z,42.805,6.029,13.2974,4.59986,2470.147,2020-11-21T07:06:50Z
2020-11-21T05:08:56Z,42.805,6.029,13.2976,4.59992,2470.147,2020-11-21T07:09:53Z
2020-11-21T05:11:59Z,42.805,6.029,13.2972,4.60019,2470.171,2020-11-21T07:12:56Z
2020-11-21T05:15:02Z,42.805,6.029,13.2980,4.60001,2470.133,2020-11-21T07:15:59Z
2020-11-21T05:18:05Z,42.805,6.029,13.2976,4.59980,2470.147,2020-11-21T07:19:02Z
2020-11-21T05:21:09Z,42.805,6.029,13.2980,4.60028,2470.11,2020-11-21T07:22:06Z
2020-11-21T05:24:12Z,42.805,6.029,13.2974,4.60033,2470.133,2020-11-21T07:25:09Z
2020-11-21T05:27:15Z,42.805,6.029,13.2979,4.60014,2470.156,2020-11-21T07:28:12Z
2020-11-21T05:30:18Z,42.805,6.029,13.2969,4.60001,2470.133,2020-11-21T07:31:15Z
2020-11-21T05:33:21Z,42.805,6.029,13.2974,4.59991,2470.171,2020-11-21T07:34:18Z
2020-11-21T05:36:24Z,42.805,6.029,13.2971,4.59994,2470.147,2020-11-21T07:37:21Z
2020-11-21T05:39:27Z,42.805,6.029,13.2975,4.59991,2470.156,2020-11-21T07:40:24Z
2020-11-21T05:42:30Z,42.805,6.029,13.2975,4.59994,2470.133,2020-11-21T07:43:27Z
2020-11-21T05:45:34Z,42.805,6.029,13.2971,4.59987,2470.147,2020-11-21T07:46:31Z
2020-11-21T05:48:37Z,42.805,6.029,13.2977,4.59986,2470.156,2020-11-21T07:49:34Z
2020-11-21T05:51:40Z,42.805,6.029,13.2971,4.59994,2470.133,2020-11-21T07:52:37Z
2020-11-21T05:54:43Z,42.805,6.029,13.2975,4.59998,2470.133,2020-11-21T07:55:40Z
2020-11-21T05:57:46Z,42.805,6.029,13.2971,4.60001,2470.171,2020-11-21T07:58:43Z
2020-11-21T06:00:49Z,42.805,6.029,13.2974,4.59999,2470.171,2020-11-21T08:01:46Z
2020-11-21T06:03:52Z,42.805,6.029,13.2970,4.59999,2470.133,2020-11-21T08:04:49Z
2020-11-21T06:06:55Z,42.805,6.029,13.2972,4.59996,2470.156,2020-11-21T08:07:52Z
2020-11-21T06:09:59Z,42.805,6.029,13.2975,4.59997,2470.156,2020-11-21T08:10:56Z
2020-11-21T06:13:02Z,42.805,6.029,13.2970,4.59982,2470.147,2020-11-21T08:13:59Z
2020-11-21T06:16:05Z,42.805,6.029,13.2971,4.59987,2470.194,2020-11-21T08:17:02Z
2020-11-21T06:19:08Z,42.805,6.029,13.2969,4.59981,2470.156,2020-11-21T08:20:05Z
2020-11-21T06:22:11Z,42.805,6.029,13.2973,4.59981,2470.156,2020-11-21T08:23:08Z
2020-11-21T06:25:14Z,42.805,6.029,13.2973,4.59983,2470.171,2020-11-21T08:26:11Z
2020-11-21T06:28:17Z,42.805,6.029,13.2971,4.59986,2470.133,2020-11-21T08:29:14Z
2020-11-21T06:31:20Z,42.805,6.029,13.2974,4.59988,2470.171,2020-11-21T08:32:17Z
2020-11-21T06:34:23Z,42.805,6.029,13.2974,4.59987,2470.133,2020-11-21T08:35:20Z
2020-11-21T06:37:27Z,42.805,6.029,13.2975,4.59984,2470.156,2020-11-21T08:38:24Z
2020-11-21T06:40:30Z,42.805,6.029,13.2974,4.59984,2470.18,2020-11-21T08:41:27Z
2020-11-21T06:43:33Z,42.805,6.029,13.2974,4.59985,2470.156,2020-11-21T08:44:30Z
2020-11-21T06:46:36Z,42.805,6.029,13.2978,4.59984,2470.18,2020-11-21T08:47:33Z
2020-11-21T06:49:39Z,42.805,6.029,13.2976,4.59982,2470.171,2020-11-21T08:50:36Z
2020-11-21T06:52:42Z,42.805,6.029,13.2977,4.59982,2470.18,2020-11-21T08:53:39Z
2020-11-21T06:55:45Z,42.805,6.029,13.2975,4.59986,2470.171,2020-11-21T08:56:42Z
2020-11-21T06:58:48Z,42.805,6.029,13.2972,4.59982,2470.18,2020-11-21T08:59:45Z
2020-11-21T07:01:52Z,42.805,6.029,13.2974,4.59981,2470.156,2020-11-21T09:02:49Z
2020-11-21T07:04:55Z,42.805,6.029,13.2971,4.59979,2470.156,2020-11-21T09:05:52Z
2020-11-21T07:07:58Z,42.805,6.029,13.2973,4.59981,2470.217,2020-11-21T09:08:55Z
2020-11-21T07:11:01Z,42.805,6.029,13.2973,4.59980,2470.203,2020-11-21T09:11:58Z
2020-11-21T07:14:04Z,42.805,6.029,13.2969,4.59981,2470.18,2020-11-21T09:15:01Z
2020-11-21T07:17:07Z,42.805,6.029,13.2974,4.59981,2470.217,2020-11-21T09:18:04Z
2020-11-21T07:20:10Z,42.805,6.029,13.2971,4.59983,2470.217,2020-11-21T09:21:07Z
2020-11-21T07:23:13Z,42.805,6.029,13.2974,4.59985,2470.18,2020-11-21T09:24:10Z
2020-11-21T07:26:17Z,42.805,6.029,13.2973,4.59981,2470.18,2020-11-21T09:27:14Z
2020-11-21T07:29:20Z,42.805,6.029,13.2971,4.59983,2470.217,2020-11-21T09:30:17Z
2020-11-21T07:32:23Z,42.805,6.029,13.2969,4.59986,2470.194,2020-11-21T09:33:20Z
2020-11-21T07:35:26Z,42.805,6.029,13.2974,4.59986,2470.18,2020-11-21T09:36:23Z
2020-11-21T07:38:29Z,42.805,6.029,13.2975,4.59983,2470.203,2020-11-21T09:39:26Z
2020-11-21T07:41:32Z,42.805,6.029,13.2975,4.59983,2470.217,2020-11-21T09:42:29Z
2020-11-21T07:44:35Z,42.805,6.029,13.2974,4.59984,2470.203,2020-11-21T09:45:32Z
2020-11-21T07:47:38Z,42.805,6.029,13.2973,4.59981,2470.18,2020-11-21T09:48:35Z
2020-11-21T07:50:42Z,42.805,6.029,13.2970,4.59980,2470.227,2020-11-21T09:51:39Z
2020-11-21T07:53:45Z,42.805,6.029,13.2970,4.59981,2470.217,2020-11-21T09:54:42Z
2020-11-21T07:56:48Z,42.805,6.029,13.2976,4.59983,2470.217,2020-11-21T09:57:45Z
2020-11-21T07:59:51Z,42.805,6.029,13.2974,4.59985,2470.227,2020-11-21T10:00:48Z
2020-11-21T08:02:54Z,42.805,6.029,13.2973,4.59983,2470.217,2020-11-21T10:03:51Z
2020-11-21T08:05:57Z,42.805,6.029,13.2972,4.59983,2470.227,2020-11-21T10:06:54Z
2020-11-21T08:09:00Z,42.805,6.029,13.2976,4.59981,2470.227,2020-11-21T10:09:57Z
2020-11-21T08:12:03Z,42.805,6.029,13.2971,4.59983,2470.18,2020-11-21T10:13:00Z
2020-11-21T08:15:07Z,42.805,6.029,13.2977,4.59980,2470.24,2020-11-21T10:16:04Z
2020-11-21T08:18:10Z,42.805,6.029,13.2971,4.59981,2470.264,2020-11-21T10:19:07Z
2020-11-21T08:21:13Z,42.805,6.029,13.2973,4.59982,2470.25,2020-11-21T10:22:10Z
2020-11-21T08:24:16Z,42.805,6.029,13.2969,4.59983,2470.203,2020-11-21T10:25:13Z
2020-11-21T08:27:19Z,42.805,6.029,13.2971,4.59981,2470.26,2020-11-21T10:28:16Z
2020-11-21T08:30:22Z,42.805,6.029,13.2976,4.59981,2470.24,2020-11-21T10:31:19Z
2020-11-21T08:33:25Z,42.805,6.029,13.2974,4.59980,2470.25,2020-11-21T10:34:22Z
2020-11-21T08:36:28Z,42.805,6.029,13.2973,4.59979,2470.213,2020-11-21T10:37:25Z
2020-11-21T08:39:32Z,42.805,6.029,13.2969,4.59981,2470.25,2020-11-21T10:40:29Z
2020-11-21T08:42:35Z,42.805,6.029,13.2976,4.59981,2470.273,2020-11-21T10:43:32Z
2020-11-21T08:45:38Z,42.805,6.029,13.2974,4.59984,2470.25,2020-11-21T10:46:35Z
2020-11-21T08:48:41Z,42.805,6.029,13.2971,4.59982,2470.24,2020-11-21T10:49:38Z
2020-11-21T08:51:44Z,42.805,6.029,13.2976,4.59980,2470.31,2020-11-21T10:52:41Z
2020-11-21T08:54:47Z,42.805,6.029,13.2977,4.59982,2470.273,2020-11-21T10:55:44Z
2020-11-21T08:57:50Z,42.805,6.029,13.2976,4.59982,2470.25,2020-11-21T10:58:47Z
2020-11-21T09:00:53Z,42.805,6.029,13.2974,4.59982,2470.227,2020-11-21T11:01:50Z
2020-11-21T09:03:57Z,42.805,6.029,13.2975,4.59982,2470.287,2020-11-21T11:04:54Z
2020-11-21T09:07:00Z,42.805,6.029,13.2974,4.59981,2470.25,2020-11-21T11:07:57Z
2020-11-21T09:10:03Z,42.805,6.029,13.2974,4.59981,2470.227,2020-11-21T11:11:00Z
2020-11-21T09:13:06Z,42.805,6.029,13.2978,4.59981,2470.273,2020-11-21T11:14:03Z
2020-11-21T09:16:09Z,42.805,6.029,13.2973,4.59980,2470.273,2020-11-21T11:17:06Z
2020-11-21T09:19:12Z,42.805,6.029,13.2974,4.59981,2470.287,2020-11-21T11:20:09Z
2020-11-21T09:22:15Z,42.805,6.029,13.2972,4.59981,2470.334,2020-11-21T11:23:12Z
2020-11-21T09:25:18Z,42.805,6.029,13.2972,4.59981,2470.264,2020-11-21T11:26:15Z
2020-11-21T09:28:22Z,42.805,6.029,13.2971,4.59980,2470.297,2020-11-21T11:29:19Z
2020-11-21T09:31:25Z,42.805,6.029,13.2974,4.59980,2470.297,2020-11-21T11:32:22Z
2020-11-21T09:34:28Z,42.805,6.029,13.2974,4.59979,2470.32,2020-11-21T11:35:25Z
2020-11-21T09:37:31Z,42.805,6.029,13.2971,4.59981,2470.287,2020-11-21T11:38:28Z
2020-11-21T09:40:34Z,42.805,6.029,13.2971,4.59979,2470.297,2020-11-21T11:41:31Z
2020-11-21T09:43:37Z,42.805,6.029,13.2975,4.59981,2470.334,2020-11-21T11:44:34Z
2020-11-21T09:46:40Z,42.805,6.029,13.2974,4.59982,2470.297,2020-11-21T11:47:37Z
2020-11-21T09:49:43Z,42.805,6.029,13.2974,4.59981,2470.32,2020-11-21T11:50:40Z
2020-11-21T09:52:47Z,42.805,6.029,13.2974,4.59979,2470.306,2020-11-21T11:53:44Z
2020-11-21T09:55:50Z,42.805,6.029,13.2977,4.59980,2470.32,2020-11-21T11:56:47Z
2020-11-21T09:58:53Z,42.805,6.029,13.2974,4.59979,2470.343,2020-11-21T11:59:50Z
2020-11-21T10:01:56Z,42.805,6.029,13.2974,4.59979,2470.32,2020-11-21T12:02:53Z
2020-11-21T10:04:59Z,42.805,6.029,13.2975,4.59981,2470.297,2020-11-21T12:05:56Z
2020-11-21T10:08:02Z,42.805,6.029,13.2974,4.59981,2470.297,2020-11-21T12:08:59Z
2020-11-21T10:11:05Z,42.805,6.029,13.2974,4.59979,2470.343,2020-11-21T12:12:02Z
2020-11-21T10:14:08Z,42.805,6.029,13.2973,4.59980,2470.357,2020-11-21T12:15:05Z
2020-11-21T10:17:12Z,42.805,6.029,13.2976,4.59979,2470.32,2020-11-21T12:18:09Z
2020-11-21T10:20:15Z,42.805,6.029,13.2974,4.59979,2470.334,2020-11-21T12:21:12Z
2020-11-21T10:23:18Z,42.805,6.029,13.2974,4.59978,2470.357,2020-11-21T12:24:15Z
2020-11-21T10:26:21Z,42.805,6.029,13.2971,4.59979,2470.366,2020-11-21T12:27:18Z
2020-11-21T10:29:24Z,42.805,6.029,13.2974,4.59979,2470.38,2020-11-21T12:30:21Z
2020-11-21T10:32:27Z,42.805,6.029,13.2974,4.59984,2470.357,2020-11-21T12:33:24Z
2020-11-21T10:35:30Z,42.805,6.029,13.2976,4.59981,2470.366,2020-11-21T12:36:27Z
2020-11-21T10:38:33Z,42.805,6.029,13.2974,4.59978,2470.366,2020-11-21T12:39:30Z
2020-11-21T10:41:37Z,42.805,6.029,13.2974,4.59979,2470.357,2020-11-21T12:42:34Z
2020-11-21T10:44:40Z,42.805,6.029,13.2975,4.59981,2470.39,2020-11-21T12:45:37Z
2020-11-21T10:47:43Z,42.805,6.029,13.2977,4.59979,2470.343,2020-11-21T12:48:40Z
2020-11-21T10:50:46Z,42.805,6.029,13.2976,4.59979,2470.343,2020-11-21T12:51:43Z
2020-11-21T10:53:49Z,42.805,6.029,13.2972,4.59978,2470.334,2020-11-21T12:54:46Z
2020-11-21T10:56:52Z,42.805,6.029,13.2973,4.59979,2470.39,2020-11-21T12:57:49Z
2020-11-21T10:59:55Z,42.805,6.029,13.2973,4.59979,2470.38,2020-11-21T13:00:52Z
2020-11-21T11:02:58Z,42.805,6.029,13.2973,4.59979,2470.32,2020-11-21T13:03:55Z
2020-11-21T11:06:02Z,42.805,6.029,13.2974,4.59979,2470.38,2020-11-21T13:06:59Z
2020-11-21T11:09:05Z,42.805,6.029,13.2974,4.59980,2470.357,2020-11-21T13:10:02Z
2020-11-21T11:12:08Z,42.805,6.029,13.2971,4.59978,2470.39,2020-11-21T13:13:05Z
2020-11-21T11:15:11Z,42.805,6.029,13.2974,4.59979,2470.32,2020-11-21T13:16:08Z
2020-11-21T11:18:14Z,42.805,6.029,13.2973,4.59979,2470.39,2020-11-21T13:19:11Z
2020-11-21T11:21:17Z,42.805,6.029,13.2971,4.59978,2470.32,2020-11-21T13:22:14Z
2020-11-21T11:24:20Z,42.805,6.029,13.2975,4.59978,2470.366,2020-11-21T13:25:17Z
2020-11-21T11:27:24Z,42.805,6.029,13.2971,4.59977,2470.357,2020-11-21T13:28:21Z
2020-11-21T11:30:27Z,42.805,6.029,13.2976,4.59977,2470.366,2020-11-21T13:31:24Z
2020-11-21T11:33:30Z,42.805,6.029,13.2974,4.59979,2470.38,2020-11-21T13:34:27Z
2020-11-21T11:36:33Z,42.805,6.029,13.2972,4.59978,2470.366,2020-11-21T13:37:30Z
2020-11-21T11:39:36Z,42.805,6.029,13.2972,4.59978,2470.366,2020-11-21T13:40:33Z
2020-11-21T11:42:39Z,42.805,6.029,13.2976,4.59979,2470.366,2020-11-21T13:43:36Z
2020-11-21T11:45:42Z,42.805,6.029,13.2969,4.59977,2470.404,2020-11-21T13:46:39Z
2020-11-21T11:48:45Z,42.805,6.029,13.2974,4.59977,2470.366,2020-11-21T13:49:42Z
2020-11-21T11:51:49Z,42.805,6.029,13.2974,4.59978,2470.366,2020-11-21T13:52:46Z
2020-11-21T11:54:52Z,42.805,6.029,13.2975,4.59979,2470.366,2020-11-21T13:55:49Z
2020-11-21T11:57:55Z,42.805,6.029,13.2972,4.59978,2470.343,2020-11-21T13:58:52Z
2020-11-21T12:00:58Z,42.805,6.029,13.2976,4.59976,2470.38,2020-11-21T14:01:55Z
2020-11-21T12:04:01Z,42.805,6.029,13.2976,4.59976,2470.366,2020-11-21T14:04:58Z
2020-11-21T12:07:04Z,42.805,6.029,13.2972,4.59979,2470.366,2020-11-21T14:08:01Z
2020-11-21T12:10:07Z,42.805,6.029,13.2974,4.59978,2470.366,2020-11-21T14:11:04Z
2020-11-21T12:13:10Z,42.805,6.029,13.2971,4.59976,2470.343,2020-11-21T14:14:07Z
2020-11-21T12:16:14Z,42.805,6.029,13.2977,4.59979,2470.39,2020-11-21T14:17:11Z
2020-11-21T12:19:17Z,42.805,6.029,13.2974,4.59980,2470.38,2020-11-21T14:20:14Z
2020-11-21T12:22:20Z,42.805,6.029,13.2976,4.59976,2470.366,2020-11-21T14:23:17Z
2020-11-21T12:25:23Z,42.805,6.029,13.2974,4.59978,2470.343,2020-11-21T14:26:20Z
2020-11-21T12:28:26Z,42.805,6.029,13.2974,4.59979,2470.366,2020-11-21T14:29:23Z
2020-11-21T12:31:29Z,42.805,6.029,13.2970,4.59979,2470.39,2020-11-21T14:32:26Z
2020-11-21T12:34:32Z,42.805,6.029,13.2977,4.59978,2470.39,2020-11-21T14:35:29Z
2020-11-21T12:37:35Z,42.805,6.029,13.2973,4.59980,2470.366,2020-11-21T14:38:32Z
2020-11-21T12:40:39Z,42.805,6.029,13.2974,4.59979,2470.366,2020-11-21T14:41:36Z
2020-11-21T12:43:42Z,42.805,6.029,13.2974,4.59977,2470.39,2020-11-21T14:44:39Z
2020-11-21T12:46:45Z,42.805,6.029,13.2971,4.59978,2470.404,2020-11-21T14:47:42Z
2020-11-21T12:49:48Z,42.805,6.029,13.2971,4.59976,2470.366,2020-11-21T14:50:45Z
2020-11-21T12:52:51Z,42.805,6.029,13.2978,4.59979,2470.38,2020-11-21T14:53:48Z
2020-11-21T12:55:54Z,42.805,6.029,13.2974,4.59976,2470.357,2020-11-21T14:56:51Z
2020-11-21T12:58:57Z,42.805,6.029,13.2972,4.59976,2470.38,2020-11-21T14:59:54Z
2020-11-21T13:02:00Z,42.805,6.029,13.2974,4.59979,2470.366,2020-11-21T15:02:58Z
2020-11-21T13:05:04Z,42.805,6.029,13.2973,4.59981,2470.39,2020-11-21T15:06:01Z
2020-11-21T13:08:07Z,42.805,6.029,13.2973,4.59978,2470.343,2020-11-21T15:09:04Z
2020-11-21T13:11:10Z,42.805,6.029,13.2971,4.59978,2470.38,2020-11-21T15:12:07Z
2020-11-21T13:14:13Z,42.805,6.029,13.2974,4.59976,2470.343,2020-11-21T15:15:10Z
2020-11-21T13:17:16Z,42.805,6.029,13.2974,4.59978,2470.343,2020-11-21T15:18:13Z
2020-11-21T13:20:19Z,42.805,6.029,13.2971,4.59979,2470.366,2020-11-21T15:21:16Z
2020-11-21T13:23:22Z,42.805,6.029,13.2973,4.59979,2470.366,2020-11-21T15:24:19Z
2020-11-21T13:26:25Z,42.805,6.029,13.2978,4.59978,2470.39,2020-11-21T15:27:22Z
2020-11-21T13:29:29Z,42.805,6.029,13.2974,4.59979,2470.38,2020-11-21T15:30:26Z
2020-11-21T13:32:32Z,42.805,6.029,13.2975,4.59981,2470.39,2020-11-21T15:33:29Z
2020-11-21T13:35:35Z,42.805,6.029,13.2976,4.59976,2470.343,2020-11-21T15:36:32Z
2020-11-21T13:38:38Z,42.805,6.029,13.2972,4.59976,2470.38,2020-11-21T15:39:35Z
2020-11-21T13:41:41Z,42.805,6.029,13.2979,4.59977,2470.366,2020-11-21T15:42:38Z
2020-11-21T13:44:44Z,42.805,6.029,13.2976,4.59978,2470.343,2020-11-21T15:45:41Z
2020-11-21T13:47:47Z,42.805,6.029,13.2973,4.59979,2470.343,2020-11-21T15:48:44Z
2020-11-21T13:50:51Z,42.805,6.029,13.2974,4.59978,2470.427,2020-11-21T15:51:48Z
2020-11-21T13:53:54Z,42.805,6.029,13.2968,4.59979,2470.357,2020-11-21T15:54:51Z
2020-11-21T13:56:57Z,42.805,6.029,13.2973,4.59979,2470.366,2020-11-21T15:57:54Z
2020-11-21T14:00:00Z,42.805,6.029,13.2974,4.59976,2470.366,2020-11-21T16:00:57Z
2020-11-21T14:03:03Z,42.805,6.029,13.2974,4.59976,2470.334,2020-11-21T16:04:00Z
2020-11-21T14:06:06Z,42.805,6.029,13.2974,4.59979,2470.343,2020-11-21T16:07:03Z
2020-11-21T14:09:09Z,42.805,6.029,13.2973,4.59978,2470.343,2020-11-21T16:10:06Z
2020-11-21T14:12:12Z,42.805,6.029,13.2972,4.59981,2470.366,2020-11-21T16:13:09Z
2020-11-21T14:15:15Z,42.805,6.029,13.2973,4.59979,2470.404,2020-11-21T16:16:13Z
2020-11-21T14:18:19Z,42.805,6.029,13.2974,4.59979,2470.366,2020-11-21T16:19:16Z
2020-11-21T14:21:22Z,42.805,6.029,13.2976,4.59979,2470.343,2020-11-21T16:22:19Z
2020-11-21T14:24:25Z,42.805,6.029,13.2974,4.59978,2470.32,2020-11-21T16:25:22Z
2020-11-21T14:27:28Z,42.805,6.029,13.2974,4.59976,2470.413,2020-11-21T16:28:25Z
2020-11-21T14:30:31Z,42.805,6.029,13.2971,4.59980,2470.366,2020-11-21T16:31:28Z
2020-11-21T14:33:34Z,42.805,6.029,13.2975,4.59976,2470.38,2020-11-21T16:34:31Z
2020-11-21T14:36:37Z,42.805,6.029,13.2974,4.59978,2470.366,2020-11-21T16:37:34Z
2020-11-21T14:39:41Z,42.805,6.029,13.2976,4.59979,2470.366,2020-11-21T16:40:38Z
2020-11-21T14:42:44Z,42.805,6.029,13.2974,4.59977,2470.38,2020-11-21T16:43:41Z
2020-11-21T14:45:47Z,42.805,6.029,13.2979,4.59977,2470.343,2020-11-21T16:46:44Z
2020-11-21T14:48:50Z,42.805,6.029,13.2973,4.59979,2470.343,2020-11-21T16:49:47Z
2020-11-21T14:51:53Z,42.805,6.029,13.2976,4.59981,2470.343,2020-11-21T16:52:50Z
2020-11-21T14:54:56Z,42.805,6.029,13.2970,4.59978,2470.32,2020-11-21T16:55:53Z
2020-11-21T14:57:59Z,42.805,6.029,13.2974,4.59977,2470.38,2020-11-21T16:58:56Z
2020-11-21T15:01:02Z,42.805,6.029,13.2972,4.59982,2470.32,2020-11-21T17:01:59Z